TimePDT,TemperatureF,Dew PointF,Humidity,Sea Level PressureIn,VisibilityMPH,Wind Direction,Wind SpeedMPH,Gust SpeedMPH,PrecipitationIn,Events,Conditions,WindDirDegrees,DateUTC
12:53 AM,66.0,57.0,73,29.98,10.0,Calm,Calm,-,N/A,,Clear,0,2013-08-08 07:53:00
1:53 AM,64.9,57.0,75,29.96,10.0,Calm,Calm,-,N/A,,Unknown,0,2013-08-08 08:53:00
2:53 AM,64.9,57.0,75,29.96,10.0,Calm,Calm,-,N/A,,Unknown,0,2013-08-08 09:53:00
3:53 AM,64.0,57.0,78,29.96,10.0,Calm,Calm,-,N/A,,Unknown,0,2013-08-08 10:53:00
4:53 AM,64.0,57.0,78,29.95,10.0,Calm,Calm,-,N/A,,Partly Cloudy,0,2013-08-08 11:53:00
5:11 AM,62.6,55.4,77,29.95,10.0,Calm,Calm,-,N/A,,Mostly Cloudy,0,2013-08-08 12:11:00
5:53 AM,63.0,55.9,78,29.96,10.0,Calm,Calm,-,N/A,,Mostly Cloudy,0,2013-08-08 12:53:00
6:04 AM,62.6,55.4,77,29.96,10.0,Calm,Calm,-,N/A,,Partly Cloudy,0,2013-08-08 13:04:00
6:53 AM,64.0,55.9,75,29.98,10.0,Calm,Calm,-,N/A,,Mostly Cloudy,0,2013-08-08 13:53:00
7:53 AM,66.0,57.9,75,29.99,10.0,Calm,Calm,-,N/A,,Mostly Cloudy,0,2013-08-08 14:53:00
8:53 AM,68.0,57.9,70,29.99,7.0,Calm,Calm,-,N/A,,Mostly Cloudy,0,2013-08-08 15:53:00
9:29 AM,69.8,57.2,64,29.99,7.0,Calm,Calm,-,N/A,,Scattered Clouds,0,2013-08-08 16:29:00
9:53 AM,71.1,57.0,61,29.99,8.0,Calm,Calm,-,N/A,,Clear,0,2013-08-08 16:53:00
10:53 AM,75.0,57.0,53,29.99,10.0,Calm,Calm,-,N/A,,Clear,0,2013-08-08 17:53:00
11:53 AM,77.0,57.0,50,29.98,10.0,Variable,6.9,-,N/A,,Clear,0,2013-08-08 18:53:00
12:53 PM,78.1,57.0,48,29.96,10.0,SSW,6.9,-,N/A,,Clear,210,2013-08-08 19:53:00
1:53 PM,78.1,55.0,45,29.96,10.0,Variable,6.9,-,N/A,,Clear,0,2013-08-08 20:53:00
2:53 PM,80.1,57.0,45,29.94,10.0,SSW,8.1,-,N/A,,Clear,200,2013-08-08 21:53:00
3:53 PM,79.0,57.0,47,29.92,10.0,SSW,10.4,-,N/A,,Unknown,200,2013-08-08 22:53:00
4:53 PM,78.1,57.9,50,29.91,10.0,South,8.1,-,N/A,,Unknown,180,2013-08-08 23:53:00
5:53 PM,78.1,57.0,48,29.90,10.0,South,5.8,-,N/A,,Unknown,180,2013-08-09 00:53:00
6:53 PM,75.9,57.9,54,29.89,10.0,South,6.9,-,N/A,,Clear,190,2013-08-09 01:53:00
7:53 PM,73.0,57.0,57,29.90,10.0,Variable,3.5,-,N/A,,Clear,0,2013-08-09 02:53:00
8:53 PM,70.0,55.9,61,29.91,10.0,West,4.6,-,N/A,,Clear,270,2013-08-09 03:53:00
9:53 PM,69.1,57.0,65,29.93,10.0,NW,3.5,-,N/A,,Clear,310,2013-08-09 04:53:00
10:53 PM,68.0,57.9,70,29.93,10.0,Calm,Calm,-,N/A,,Clear,0,2013-08-09 05:53:00
11:53 PM,66.9,57.0,70,29.93,10.0,Calm,Calm,-,N/A,,Unknown,0,2013-08-09 06:53:00